Tracking 17886 objects as of 9-December-2016
HD Live streaming from Space Station
objects crossing your sky now

ARIANE 44L+3 R/B

Track ARIANE 44L+3 R/B now!


NORAD ID: 23866
Int'l Code: 1996-030C
Perigee: 321.7 km
Apogee: 30,755.7 km
Inclination: 4.2 °
Period: 537.9 minutes
Semi major axis: 21909 km
RCS: 20.3809 m2 (large)
Launch date: May 16, 1996
Source: France (FR)
Launch site: FRENCH GUIANA (FRGUI)

Note: This is a ROCKET BODY
Your satellite tracking list
Your tracking list is empty





NASA's NSSDC Master Catalog

Two Line Element Set (TLE):
1 23866U 96030C   16343.84330137 -.00000129  00000-0  00000+0 0  9991
2 23866   4.2084 267.7206 6945323 109.8234 333.1833  2.67709683185932
Source of the keplerian elements: AFSPC